Notices

What's New in latest Release from April 7th, 2021:

- Updated Glossary, including Speed of Maximum Gust, and Total Hourly Precipitation

- Updated national and regional climate services offices contacts and prices information

- Addition of station inventory lists for 1981-2010, 1971-2000, and 1961-1990 Normals.

If you haven't already, please take our survey and provide feedback about our website: https://eccc.sondage-survey.ca/f/LanguageSelection.aspx?s=442ca660-fcf1-47c0-95a9-59707d6fd709

Hourly Data Report for March 30, 2020

MIRAMICHI RCS
NEW BRUNSWICK
Current Station Operator: ECCC - MSC

47°00'34.000" N
65°27'54.000" W
33.00 m
8100989
71744
ACQ

Download Data

Hourly Data (March 2020)
Hourly Data Report for March 30, 2020
TIME
LST
Temp Definition
°C
Dew Point Definition
°C
Rel Hum Definition
%
Precip. Amount Definition
mm

Wind Dir Definition
10's deg

Wind Spd Definition
km/h
Visibility Definition
km
Stn Press Definition
kPa
Hmdx Definition


Wind Chill Definition


Weather Definition


00:00 -0.7 -3.9 79 LegendMM 6 14   102.17   -5 LegendNANA
01:00 -0.8 -5.0 73 LegendMM 6 9   102.10   -4 LegendNANA
02:00 -0.9 -5.5 71 LegendMM 5 7   102.13   -3 LegendNANA
03:00 -1.0 -7.5 62 LegendMM 6 13   102.11   -5 LegendNANA
04:00 -1.4 -6.5 68 LegendMM 6 16   102.09   -6 LegendNANA
05:00 -1.5 -6.1 71 LegendMM 6 12   102.14   -6 LegendNANA
06:00 -1.5 -5.2 75 LegendMM 6 14   102.11   -6 LegendNANA
07:00 -1.5 -5.6 73 LegendMM 6 13   102.13   -6 LegendNANA
08:00 -1.4 -4.9 77 LegendMM 6 16   102.09   -6 LegendNANA
09:00 -1.2 -5.4 73 LegendMM 7 22   102.10   -7 LegendNANA
10:00 -0.6 -5.9 67 LegendMM 6 24   102.07   -7 LegendNANA
11:00 -0.5 -4.8 72 LegendMM 6 28   102.07   -7 LegendNANA
12:00 -0.2 -4.2 75 LegendMM 6 28   102.05   -7 LegendNANA
13:00 -0.2 -3.6 78 LegendMM 6 26   102.03   -6 LegendNANA
14:00 0.0 -3.6 77 LegendMM 7 23   101.98   -6 LegendNANA
15:00 -0.5 -4.3 75 LegendMM 6 27   101.94   -7 LegendNANA
16:00 -0.7 -4.8 74 LegendMM 7 30   101.90   -7 LegendNANA
17:00 -1.2 -4.9 76 LegendMM 7 30   101.89   -8 LegendNANA
18:00 -1.8 -4.9 79 LegendMM 6 25   101.90   -8 LegendNANA
19:00 -2.1 -5.3 79 LegendMM 5 21   101.92   -8 LegendNANA
20:00 -2.1 -5.7 76 LegendMM 5 20   101.92   -8 LegendNANA
21:00 -2.0 -5.5 77 LegendMM 5 17   101.92   -7 LegendNANA
22:00 -2.1 -5.7 76 LegendMM 3 11   101.94   -6 LegendNANA
23:00 -2.4 -6.2 75 LegendMM 2 10   101.90   -6 LegendNANA

Notes on Data Quality.

Legend

  • E = Estimated
  • M = Missing
  • NA = Not Available*
  • [empty] = Indicates an unobserved value
Date modified: